Home > Weather > Haldimand > Past weeks

Flag for Canada Past Weather in Haldimand, Ontario, Canada — Yesterday and Last 2 Weeks

Now
77 °F

Partly sunny.


Feels Like: 79 °F
Forecast: N/A
Wind: 14 mph from Northeast

Location: Hamilton Airport

Current Time: Jul 29, 2016 at 5:51:37 PM

Latest Report: Jul 29, 2016 at 5:00 PM


Visibility: 12 mi

Pressure: 29.96 "Hg

Humidity: 54%

Dew Point: 59 °F

Location of HaldimandLocation

Past Weather in Haldimand — Graph

°F

Haldimand Temperature Yesterday

Maximum temperature yesterday: 82 °F (at 3:00 PM)
Minimum temperature yesterday: 70 °F (at 12:00 AM)
Average temperature yesterday: 75 °F

High & Low Weather Summary for the Past Weeks

 TemperatureHumidityPressure
High91 °F (Jul 22, 3:00 PM)100% (Jul 27, 3:00 AM)30.29 "Hg (Jul 27, 3:00 AM)
Low50 °F (Jul 17, 6:00 AM)30% (Jul 20, 4:00 PM)29.76 "Hg (Jul 14, 6:00 PM)
Average73 °F66%30.00 "Hg
* Reported Jul 14 4:00 PM — Jul 29 4:00 PM, Haldimand, Weather by CustomWeather, © 2016

Note: Actual official high and low records may vary slightly from our data, if they occured in-between our weather recording intervals... More about our weather records

Advertising

Haldimand Weather History for the Previous 24 Hours

Scroll right to see more
 ConditionsComfort  
Time TempWeatherWind HumidityBarometerVisibility
4:00 PM
Fri, Jul 29
77 °FPartly sunny.14 mph57%29.97 "Hg10 mi
3:00 PM77 °FPartly sunny.15 mph57%29.97 "Hg10 mi
2:00 PM75 °FBroken clouds.13 mph57%29.98 "Hg15 mi
1:00 PM73 °FBroken clouds.12 mph69%29.99 "Hg15 mi
12:00 PM73 °FBroken clouds.15 mph65%29.98 "Hg15 mi
11:00 AM72 °FPartly sunny.16 mph69%29.98 "Hg15 mi
10:00 AM72 °FScattered clouds.15 mph69%29.97 "Hg15 mi
9:00 AM72 °FScattered clouds.15 mph69%29.96 "Hg15 mi
8:00 AM68 °FBroken clouds.15 mph78%29.95 "Hg15 mi
7:00 AM68 °FPartly cloudy.10 mph83%29.94 "Hg15 mi
6:00 AM68 °FPartly cloudy.10 mph83%29.93 "Hg15 mi
5:00 AM68 °FPassing clouds.3 mph83%29.93 "Hg15 mi
4:00 AM66 °FPassing clouds.5 mph88%29.92 "Hg15 mi
3:00 AM66 °FPassing clouds.5 mph88%29.92 "Hg15 mi
2:00 AM66 °FPassing clouds.7 mph88%29.92 "Hg15 mi
1:00 AM68 °FPassing clouds.9 mph88%29.92 "Hg15 mi
12:00 AM68 °FPassing clouds.5 mph83%29.91 "Hg15 mi
11:00 PM
Thu, Jul 28
70 °FLight rain. Mostly cloudy.7 mph83%29.90 "Hg15 mi
10:00 PM73 °FMostly cloudy.7 mph65%29.93 "Hg15 mi
9:00 PM75 °FCloudy.7 mph54%29.90 "Hg15 mi
8:00 PM77 °FPartly sunny.7 mph57%29.89 "Hg15 mi
7:00 PM79 °FMore clouds than sun.8 mph54%29.88 "Hg15 mi
6:00 PM82 °FPartly sunny.3 mph51%29.88 "Hg15 mi
5:00 PM82 °FOvercast.7 mph48%29.88 "Hg15 mi
Weather by CustomWeather, © 2016

See weather overviewHow to use our weather pages